Volver al catálogo

STARLINK-34881

ActivoComunicacionesVLEO
NORAD 65347·PAYLOAD·🇺🇸 United States

Lanzado Aug 27, 2025 desde Cape Canaveral Space Force Station

Loading…

Próximos Pases (próximas 24 horas)

TLE

ActualizadoSource: CelesTrak SupGP

Época: Sep 14, 2026, 23:00 UTC

1 65347C 25189AA  26257.95881944  .00018367  00000+0  59087-3 0  2573
2 65347  53.1597  46.1901 0001106  77.6987 321.2192 15.31679762    18

Sigue STARLINK-34881 en tiempo real con AllMySat

Download on the App Store